Location: Newark
(35.2672°N, 80.7344°W)
Time: 13:25:52
(UTC+00:00)

A-11 Canister half - Pass Details

Date: 31 January 2020
Orbit: 1524 x 1684 km, 47.3° (Epoch: 24 February)

Event Time Altitude Azimuth Distance (km) Brightness Sun altitude
Rises 00:29:39 0° 287° (WNW) 4,684 12.7 -20.7°
Reaches altitude 10° 00:32:58 10° 295° (WNW) 3,713 11.8 -21.4°
Maximum altitude 00:41:40 40° 3° (N) 2,168 9.7 -23.2°
Enters shadow 00:45:38 29° 48° (NE) 2,593 9.7 -24.0°
